Regional Weather Roundup
Issued by NWS Cleveland, OH

Home | Current Version | Previous Version | Text Only | Print | Product List | Glossary Off
Versions: 1 2 3 4 5 6 7 8 9 10 11 12 13 14 15 16 17 18 19 20 21 22 23 24 25 26 27 28 29 30 31 32 33 34 35 36 37 38 39 40 41 42 43 44 45 46 47 48 49 50

000
ASUS41 KCLE 051202
RWRCLE
OHIO REGIONAL WEATHER ROUNDUP
NATIONAL WEATHER SERVICE CLEVELAND, OH
700 AM EST MON DEC 05 2016

NOTE: "FAIR" INDICATES FEW OR NO CLOUDS BELOW 12,000 FEET WITH NO
SIGNIFICANT WEATHER AND/OR OBSTRUCTIONS TO VISIBILITY.

OHZ001>008-015>018-024>027-034-035-043-044-051300-
   NORTHWEST OHIO

CITY           SKY/WX    TMP DP  RH WIND       PRES   REMARKS
DEFIANCE       CLOUDY    35  29  78 W7        30.04R WCI  29
FINDLAY        CLOUDY    35  29  78 W9        30.03R WCI  28
TOLEDO EXPRESS CLOUDY    35  33  92 W14       30.01R WCI  26
TOLEDO EXEC    CLOUDY    37  33  85 W12       30.02R
LIMA           CLOUDY    33  32  96 W9        30.04R WCI  25
$$

OHZ009>014-019>023-028>033-038-089-051300-
   NORTHEAST OHIO

CITY           SKY/WX    TMP DP  RH WIND       PRES   REMARKS
CLE-HOPKINS    CLOUDY    37  30  75 SW12      30.05R
CLE-LAKEFRONT  CLOUDY    39  33  79 SW14      30.02R
CUY CO. ARPT   NOT AVBL
LORAIN-ELYRIA  CLOUDY    35  29  78 W8        30.04R WCI  29
ASHTABULA      CLOUDY    38  32  79 W13G24    29.97R
AKRON-CANTON   CLOUDY    35  30  82 W12       30.02R WCI  27
WOOSTER        CLOUDY    34  30  85 W7        30.04R WCI  28
MANSFIELD      CLOUDY    34  31  88 SW7       30.03R WCI  28
YOUNGSTOWN     CLOUDY    36  31  82 W10       29.99R
$$

OHZ042-051>053-060>062-070>072-077>081-051300-
  SOUTHWEST OHIO

CITY           SKY/WX    TMP DP  RH WIND       PRES   REMARKS
CINC-COVINGTON CLOUDY    37  33  85 NW5       30.08R
CINC-LUNKEN    CLOUDY    39  33  79 NW3       30.11R
HAMILTON       CLOUDY    37  31  78 W3        30.11R
DAYTON         CLOUDY    34  31  88 W9        30.08R WCI  27
WRIGHT-PAT AFB CLOUDY    35  32  89 W7        30.08R WCI  29
DAYTON GENERAL CLOUDY    36  30  79 W5        30.08R
WILMINGTON     CLOUDY    36  31  82 W9        30.07R
$$

OHZ036-037-039>041-045>050-054>059-063>069-073>076-082>088-051300-
  CENTRAL AND SOUTHEAST OHIO

CITY           SKY/WX    TMP DP  RH WIND       PRES   REMARKS
COLUMBUS       CLOUDY    35  32  88 W6        30.07R
OSU AIRPORT    CLOUDY    35  31  85 W6        30.07R
BOLTON FIELD   NOT AVBL
RICKENBACK AFB CLOUDY    35  32  86 W6        30.08R
NEWARK         CLOUDY    36  30  79 NW9       30.07R
MARION         CLOUDY    35  30  82 W6        30.05R
LANCASTER      CLOUDY    37  32  82 NW7       30.09R
ZANESVILLE     CLOUDY    39  32  76 NW12      30.06R
NEW PHILLY     NOT AVBL
$$



USA.gov is the U.S. government's official web portal to all federal, state and local government web resources and services.